Starlink 34341

operational
NORAD ID: 64161 Int'l Des: 2025-112 Owner: SPXS Country: US Constellation: starlink
LEOCIRCULARRETROGRADESSO

About Starlink 34341

Description loading...

Live Position

Loading 3D Globe...

Upcoming Passes

Altitude History

Altitude vs Time

uPlot chart will show altitude changes over time

Two-Line Element Set

1 64161U 25112R 26061.13694771 .00003062 00000-0 21632-3 0 9990
2 64161 97.6043 114.1082 0000799 120.9671 239.1635 15.05648144 42178
Epoch: Mar 2, 2026 • Age: 26 hours

Current Status

Altitude 552.0 km
Velocity 7.59 km/s
Sub-Earth Point 16.54°N, 73.44°W
Launch Date May 27, 2025
Age 0.7 years
Type internet

Technical Details

Classification Payload
Mass 575.00 kg
Dry Mass 530.00 kg
Total Mass 575.00 kg
Length 0.30 m
Diameter 4.10 m
Span 29.00 m
Shape Box + pan
Manufacturer SPXS
Bus Type Starlink V2MO
Phase Status In Orbit
Owner/State SPXS/US

Large Constellations

Loading constellations...